• In Belarus
  • List of Countries
  • For 7 days
  • Water Temperature
  • Satellite Maps
  • Weather Map
  • Weather Widgets
  • user-avatar
    Login

    Hourly Weather Ghanzi

    Today, 24 September, Monday

    Time Temperature Precipitation Wind Pressure Humidity
    00:00 +32°C° 0 mm 6 mps 717 mmHg 20%
    01:00 +30°C° 0 mm 6 mps 717 mmHg 20%
    02:00 +29°C° 0 mm 5 mps 716 mmHg 21%
    03:00 +29°C° 0 mm 5 mps 716 mmHg 21%
    04:00 +28°C° 0 mm 5 mps 716 mmHg 22%
    05:00 +29°C° 0 mm 5 mps 716 mmHg 22%
    06:00 +29°C° 0 mm 6 mps 716 mmHg 22%
    07:00 +29°C° 0 mm 6 mps 717 mmHg 23%
    08:00 +32°C° 0 mm 6 mps 717 mmHg 20%
    09:00 +34°C° 0 mm 6 mps 718 mmHg 18%
    10:00 +36°C° 0 mm 6 mps 718 mmHg 16%
    11:00 +38°C° 0 mm 6 mps 717 mmHg 15%
    12:00 +40°C° 0 mm 6 mps 717 mmHg 14%
    13:00 +41°C° 0 mm 6 mps 716 mmHg 13%
    14:00 +41°C° 0 mm 6 mps 716 mmHg 13%
    15:00 +40°C° 0 mm 6 mps 715 mmHg 13%
    16:00 +40°C° 0 mm 6 mps 715 mmHg 13%
    17:00 +39°C° 0 mm 6 mps 715 mmHg 15%
    18:00 +37°C° 0 mm 5 mps 715 mmHg 16%
    19:00 +35°C° 0 mm 5 mps 716 mmHg 17%
    20:00 +35°C° 0 mm 5 mps 716 mmHg 18%
    21:00 +34°C° 0 mm 5 mps 716 mmHg 19%
    22:00 +33°C° 0 mm 6 mps 717 mmHg 20%
    23:00 +32°C° 0 mm 6 mps 716 mmHg 21%

    Tomorrow, 25 September, Tuesday

    Time Temperature Precipitation Wind Pressure Humidity
    00:00 +32°C° 0 mm 6 mps 716 mmHg 22%
    01:00 +30°C° 0 mm 7 mps 716 mmHg 22%
    02:00 +29°C° 0 mm 6 mps 715 mmHg 24%
    03:00 +29°C° 0 mm 6 mps 715 mmHg 25%
    04:00 +28°C° 0 mm 5 mps 715 mmHg 26%
    05:00 +28°C° 0 mm 6 mps 716 mmHg 25%
    06:00 +29°C° 0 mm 6 mps 716 mmHg 25%
    07:00 +29°C° 0 mm 6 mps 716 mmHg 24%
    08:00 +32°C° 0 mm 6 mps 717 mmHg 21%
    09:00 +34°C° 0 mm 6 mps 717 mmHg 18%
    10:00 +36°C° 0 mm 6 mps 717 mmHg 15%
    11:00 +39°C° 0 mm 6 mps 717 mmHg 14%
    12:00 +40°C° 0 mm 6 mps 716 mmHg 13%
    13:00 +41°C° 0 mm 6 mps 715 mmHg 12%
    14:00 +41°C° 0 mm 6 mps 715 mmHg 12%
    15:00 +40°C° 0 mm 6 mps 714 mmHg 12%
    16:00 +40°C° 0 mm 6 mps 714 mmHg 12%
    17:00 +39°C° 0 mm 5 mps 714 mmHg 14%
    18:00 +37°C° 0 mm 5 mps 715 mmHg 15%
    19:00 +35°C° 0 mm 5 mps 715 mmHg 16%
    20:00 +34°C° 0 mm 5 mps 715 mmHg 17%
    21:00 +34°C° 0 mm 5 mps 716 mmHg 18%
    22:00 +33°C° 0 mm 5 mps 716 mmHg 19%
    23:00 +32°C° 0 mm 5 mps 715 mmHg 20%

    Day after tomorrow, 26 September, Wednesday

    Time Temperature Precipitation Wind Pressure Humidity
    00:00 +32°C° 0 mm 6 mps 715 mmHg 22%
    01:00 +30°C° 0 mm 6 mps 715 mmHg 23%
    02:00 +29°C° 0 mm 5 mps 715 mmHg 24%
    03:00 +29°C° 0 mm 5 mps 715 mmHg 25%
    04:00 +28°C° 0 mm 5 mps 715 mmHg 27%
    05:00 +29°C° 0 mm 5 mps 715 mmHg 26%
    06:00 +29°C° 0 mm 5 mps 715 mmHg 26%
    07:00 +29°C° 0 mm 6 mps 716 mmHg 26%
    08:00 +33°C° 0 mm 6 mps 716 mmHg 23%
    09:00 +35°C° 0 mm 6 mps 716 mmHg 20%
    10:00 +38°C° 0 mm 6 mps 716 mmHg 17%
    11:00 +39°C° 0 mm 6 mps 716 mmHg 16%
    12:00 +40°C° 0 mm 6 mps 715 mmHg 15%
    13:00 +41°C° 0 mm 6 mps 714 mmHg 13%
    14:00 +40°C° 0 mm 6 mps 714 mmHg 13%
    15:00 +40°C° 0 mm 6 mps 714 mmHg 13%
    16:00 +40°C° 0 mm 5 mps 713 mmHg 13%
    17:00 +39°C° 0 mm 5 mps 714 mmHg 14%
    18:00 +37°C° 0 mm 5 mps 714 mmHg 15%
    19:00 +35°C° 0 mm 4 mps 714 mmHg 17%
    20:00 +34°C° 0 mm 5 mps 714 mmHg 18%
    21:00 +34°C° 0 mm 5 mps 715 mmHg 19%
    22:00 +33°C° 0 mm 5 mps 715 mmHg 20%
    23:00 +33°C° 0 mm 5 mps 715 mmHg 22%

    27 September, Thursday

    Time Temperature Precipitation Wind Pressure Humidity
    00:00 +32°C° 0 mm 6 mps 714 mmHg 24%
    01:00 +32°C° 0 mm 6 mps 714 mmHg 26%
    02:00 +30°C° 0 mm 6 mps 714 mmHg 28%
    03:00 +29°C° 0 mm 5 mps 714 mmHg 30%
    04:00 +29°C° 0 mm 5 mps 714 mmHg 31%
    05:00 +29°C° 0 mm 5 mps 714 mmHg 31%
    06:00 +30°C° 0 mm 6 mps 715 mmHg 30%
    07:00 +30°C° 0 mm 6 mps 715 mmHg 29%
    08:00 +33°C° 0 mm 6 mps 715 mmHg 26%
    09:00 +35°C° 0 mm 6 mps 716 mmHg 23%
    10:00 +38°C° 0 mm 6 mps 716 mmHg 20%
    11:00 +39°C° 0 mm 5 mps 715 mmHg 18%
    12:00 +38°C° 0 mm 4 mps 715 mmHg 17%
    13:00 +40°C° 0 mm 4 mps 714 mmHg 16%
    14:00 +40°C° 0 mm 4 mps 714 mmHg 16%
    15:00 +40°C° 0 mm 4 mps 713 mmHg 15%
    16:00 +40°C° 0 mm 4 mps 713 mmHg 15%
    17:00 +38°C° 0 mm 4 mps 713 mmHg 16%
    18:00 +37°C° 0 mm 4 mps 713 mmHg 18%
    19:00 +36°C° 0 mm 4 mps 714 mmHg 19%
    20:00 +35°C° 0 mm 4 mps 714 mmHg 20%
    21:00 +34°C° 0 mm 4 mps 714 mmHg 21%
    22:00 +34°C° 0 mm 4 mps 714 mmHg 21%
    23:00 +33°C° 0 mm 5 mps 714 mmHg 23%

    28 September, Friday

    Time Temperature Precipitation Wind Pressure Humidity
    00:00 +32°C° 0 mm 6 mps 714 mmHg 25%
    01:00 +32°C° 0 mm 6 mps 714 mmHg 27%
    02:00 +30°C° 0 mm 6 mps 714 mmHg 30%
    03:00 +30°C° 0 mm 6 mps 714 mmHg 33%
    04:00 +29°C° 0 mm 6 mps 714 mmHg 35%
    05:00 +29°C° 0 mm 6 mps 714 mmHg 35%
    06:00 +29°C° 0 mm 6 mps 715 mmHg 35%
    07:00 +29°C° 0 mm 6 mps 715 mmHg 35%
    08:00 +32°C° 0 mm 5 mps 715 mmHg 31%
    09:00 +34°C° 0 mm 5 mps 716 mmHg 27%
    10:00 +36°C° 0 mm 4 mps 716 mmHg 23%
    11:00 +37°C° 0 mm 4 mps 715 mmHg 21%
    12:00 +38°C° 0 mm 3 mps 715 mmHg 19%
    13:00 +39°C° 0 mm 2 mps 714 mmHg 17%
    14:00 +39°C° 0 mm 2 mps 714 mmHg 16%
    15:00 +39°C° 0 mm 3 mps 714 mmHg 16%
    16:00 +40°C° 0 mm 3 mps 714 mmHg 15%
    17:00 +39°C° 0 mm 3 mps 714 mmHg 17%
    18:00 +37°C° 0 mm 4 mps 714 mmHg 18%
    19:00 +36°C° 0 mm 4 mps 714 mmHg 20%
    20:00 +36°C° 0 mm 5 mps 715 mmHg 21%
    21:00 +35°C° 0 mm 5 mps 715 mmHg 22%
    22:00 +34°C° 0 mm 6 mps 715 mmHg 24%
    23:00 +33°C° 0 mm 6 mps 715 mmHg 26%

    29 September, Saturday

    Time Temperature Precipitation Wind Pressure Humidity
    00:00 +32°C° 0 mm 6 mps 715 mmHg 28%
    01:00 +30°C° 0 mm 7 mps 715 mmHg 29%
    02:00 +30°C° 0 mm 7 mps 715 mmHg 31%
    03:00 +29°C° 0 mm 7 mps 715 mmHg 34%
    04:00 +28°C° 0 mm 7 mps 715 mmHg 36%
    05:00 +28°C° 0 mm 7 mps 715 mmHg 35%
    06:00 +28°C° 0 mm 7 mps 715 mmHg 34%
    07:00 +29°C° 0 mm 7 mps 715 mmHg 34%
    08:00 +32°C° 0 mm 6 mps 716 mmHg 30%
    09:00 +34°C° 0 mm 5 mps 716 mmHg 26%
    10:00 +36°C° 0 mm 5 mps 716 mmHg 23%
    11:00 +37°C° 0 mm 4 mps 715 mmHg 21%
    12:00 +38°C° 0 mm 4 mps 715 mmHg 19%
    13:00 +40°C° 0 mm 3 mps 714 mmHg 17%
    14:00 +41°C° 0 mm 4 mps 714 mmHg 16%
    15:00 +41°C° 0 mm 4 mps 714 mmHg 16%
    16:00 +41°C° 0 mm 5 mps 714 mmHg 16%
    17:00 +40°C° 0 mm 6 mps 714 mmHg 17%
    18:00 +38°C° 0 mm 6 mps 714 mmHg 19%
    19:00 +36°C° 0 mm 6 mps 715 mmHg 21%
    20:00 +35°C° 0 mm 7 mps 715 mmHg 22%
    21:00 +35°C° 0 mm 7 mps 715 mmHg 24%
    22:00 +34°C° 0 mm 8 mps 715 mmHg 25%
    23:00 +33°C° 0 mm 7 mps 715 mmHg 26%
    Show more

    3.3.7123123